When you browse on this site, cookies collect data to enhance your experience and personalize the content and advertising you see.
Visit our Privacy Policy to learn more. By continuing to use the site, you agree to this use of cookies and data.
  • In Österreich
  • Länderverzeichnis
  • Für 7 Tage
  • Wassertemperatur
  • Wetterkarte
  • News
  • Widgets
  • user-avatar
    Anmelden

    Stündliche Wetter Melbourne

    Heute, 22 Oktober, Dienstag

    Zeit Temperatur Niederschläge Wind Luftdruck Luftfeuchtigkeit
    00:00 +11°C° 0 mm 1 m/S 768 mmHg 88%
    01:00 +10°C° 0 mm 1 m/S 768 mmHg 88%
    02:00 +10°C° 0 mm 1 m/S 768 mmHg 89%
    03:00 +9°C° 0 mm 0 m/S 767 mmHg 89%
    04:00 +10°C° 0 mm 0 m/S 767 mmHg 92%
    05:00 +11°C° 0 mm 0 m/S 767 mmHg 90%
    06:00 +11°C° 0 mm 0 m/S 768 mmHg 88%
    07:00 +11°C° 0 mm 0 m/S 768 mmHg 86%
    08:00 +13°C° 0 mm 0 m/S 768 mmHg 77%
    09:00 +16°C° 0 mm 1 m/S 768 mmHg 69%
    10:00 +20°C° 0 mm 1 m/S 768 mmHg 57%
    11:00 +21°C° 0 mm 1 m/S 767 mmHg 51%
    12:00 +21°C° 0 mm 2 m/S 767 mmHg 46%
    13:00 +24°C° 0 mm 2 m/S 766 mmHg 40%
    14:00 +23°C° 0 mm 2 m/S 766 mmHg 41%
    15:00 +23°C° 0 mm 2 m/S 765 mmHg 41%
    16:00 +23°C° 0 mm 2 m/S 765 mmHg 40%
    17:00 +20°C° 0 mm 2 m/S 765 mmHg 48%
    18:00 +18°C° 0 mm 2 m/S 765 mmHg 57%
    19:00 +16°C° 0 mm 1 m/S 765 mmHg 65%
    20:00 +15°C° 0 mm 1 m/S 765 mmHg 67%
    21:00 +14°C° 0 mm 1 m/S 766 mmHg 70%
    22:00 +13°C° 0 mm 1 m/S 766 mmHg 71%
    23:00 +12°C° 0 mm 0 m/S 765 mmHg 72%

    Morgen, 23 Oktober, Mittwoch

    Zeit Temperatur Niederschläge Wind Luftdruck Luftfeuchtigkeit
    00:00 +12°C° 0 mm 0 m/S 765 mmHg 73%
    01:00 +11°C° 0 mm 0 m/S 765 mmHg 74%
    02:00 +12°C° 0 mm 1 m/S 764 mmHg 73%
    03:00 +12°C° 0 mm 1 m/S 764 mmHg 72%
    04:00 +12°C° 0 mm 1 m/S 764 mmHg 70%
    05:00 +13°C° 0 mm 1 m/S 764 mmHg 65%
    06:00 +14°C° 0 mm 1 m/S 764 mmHg 59%
    07:00 +15°C° 0 mm 2 m/S 764 mmHg 54%
    08:00 +19°C° 0 mm 1 m/S 764 mmHg 47%
    09:00 +23°C° 0 mm 1 m/S 764 mmHg 39%
    10:00 +26°C° 0 mm 1 m/S 764 mmHg 32%
    11:00 +27°C° 0 mm 1 m/S 764 mmHg 30%
    12:00 +29°C° 0 mm 1 m/S 763 mmHg 28%
    13:00 +30°C° 0 mm 2 m/S 763 mmHg 25%
    14:00 +30°C° 0 mm 2 m/S 762 mmHg 28%
    15:00 +29°C° 0 mm 2 m/S 762 mmHg 30%
    16:00 +29°C° 0 mm 1 m/S 762 mmHg 32%
    17:00 +27°C° 0 mm 1 m/S 762 mmHg 38%
    18:00 +25°C° 0 mm 1 m/S 762 mmHg 44%
    19:00 +22°C° 0 mm 1 m/S 762 mmHg 51%
    20:00 +21°C° 0 mm 1 m/S 762 mmHg 54%
    21:00 +20°C° 0 mm 1 m/S 762 mmHg 58%
    22:00 +19°C° 0 mm 1 m/S 762 mmHg 61%
    23:00 +19°C° 0 mm 1 m/S 762 mmHg 61%

    übermorgen, 24 Oktober, Donnerstag

    Zeit Temperatur Niederschläge Wind Luftdruck Luftfeuchtigkeit
    00:00 +17°C° 0 mm 2 m/S 761 mmHg 61%
    01:00 +17°C° 0 mm 2 m/S 761 mmHg 60%
    02:00 +17°C° 0 mm 2 m/S 761 mmHg 58%
    03:00 +17°C° 0 mm 2 m/S 760 mmHg 55%
    04:00 +17°C° 0 mm 3 m/S 760 mmHg 53%
    05:00 +18°C° 0 mm 3 m/S 760 mmHg 51%
    06:00 +19°C° 0 mm 4 m/S 760 mmHg 49%
    07:00 +19°C° 0 mm 4 m/S 760 mmHg 48%
    08:00 +22°C° 0 mm 5 m/S 759 mmHg 41%
    09:00 +26°C° 0 mm 5 m/S 759 mmHg 35%
    10:00 +29°C° 0 mm 6 m/S 759 mmHg 29%
    11:00 +30°C° 0 mm 6 m/S 758 mmHg 29%
    12:00 +32°C° 0 mm 6 m/S 758 mmHg 28%
    13:00 +33°C° 0 mm 6 m/S 757 mmHg 28%
    14:00 +34°C° 0 mm 6 m/S 756 mmHg 27%
    15:00 +34°C° 0 mm 5 m/S 755 mmHg 27%
    16:00 +34°C° 0 mm 4 m/S 754 mmHg 26%
    17:00 +32°C° 0 mm 4 m/S 754 mmHg 29%
    18:00 +29°C° 0 mm 4 m/S 753 mmHg 31%
    19:00 +28°C° 0 mm 5 m/S 753 mmHg 34%
    20:00 +27°C° 0 mm 5 m/S 752 mmHg 33%
    21:00 +27°C° 0 mm 6 m/S 751 mmHg 32%
    22:00 +27°C° 0 mm 7 m/S 751 mmHg 31%
    23:00 +27°C° 0 mm 7 m/S 750 mmHg 29%

    25 Oktober, Freitag

    Zeit Temperatur Niederschläge Wind Luftdruck Luftfeuchtigkeit
    00:00 +27°C° 0 mm 7 m/S 750 mmHg 28%
    01:00 +27°C° 0 mm 8 m/S 750 mmHg 26%
    02:00 +24°C° 0.1 mm 7 m/S 750 mmHg 35%
    03:00 +23°C° 0.1 mm 6 m/S 751 mmHg 44%
    04:00 +21°C° 0.1 mm 6 m/S 751 mmHg 53%
    05:00 +20°C° 0.5 mm 5 m/S 752 mmHg 60%
    06:00 +17°C° 0.5 mm 5 m/S 753 mmHg 67%
    07:00 +17°C° 0.5 mm 4 m/S 753 mmHg 74%
    08:00 +18°C° 0.1 mm 4 m/S 753 mmHg 69%
    09:00 +19°C° 0.1 mm 3 m/S 753 mmHg 64%
    10:00 +19°C° 0.1 mm 3 m/S 754 mmHg 59%
    11:00 +20°C° 0 mm 3 m/S 753 mmHg 50%
    12:00 +22°C° 0 mm 4 m/S 753 mmHg 40%
    13:00 +23°C° 0 mm 5 m/S 752 mmHg 31%
    14:00 +22°C° 0 mm 5 m/S 752 mmHg 34%
    15:00 +22°C° 0 mm 6 m/S 752 mmHg 36%
    16:00 +22°C° 0 mm 7 m/S 751 mmHg 39%
    17:00 +20°C° 0 mm 6 m/S 751 mmHg 41%
    18:00 +19°C° 0 mm 6 m/S 752 mmHg 43%
    19:00 +16°C° 0 mm 5 m/S 752 mmHg 45%
    20:00 +15°C° 0 mm 5 m/S 752 mmHg 49%
    21:00 +15°C° 0 mm 5 m/S 752 mmHg 53%
    22:00 +14°C° 0 mm 5 m/S 752 mmHg 58%
    23:00 +13°C° 0 mm 5 m/S 752 mmHg 60%

    26 Oktober, Samstag

    Zeit Temperatur Niederschläge Wind Luftdruck Luftfeuchtigkeit
    00:00 +13°C° 0 mm 5 m/S 751 mmHg 62%
    01:00 +11°C° 0 mm 6 m/S 751 mmHg 64%
    02:00 +11°C° 0.1 mm 6 m/S 751 mmHg 65%
    03:00 +10°C° 0.1 mm 7 m/S 751 mmHg 67%
    04:00 +10°C° 0.1 mm 7 m/S 751 mmHg 69%
    05:00 +10°C° 0 mm 7 m/S 752 mmHg 67%
    06:00 +10°C° 0 mm 7 m/S 753 mmHg 65%
    07:00 +10°C° 0 mm 7 m/S 753 mmHg 63%
    08:00 +11°C° 0 mm 7 m/S 754 mmHg 58%
    09:00 +12°C° 0 mm 7 m/S 754 mmHg 52%
    10:00 +14°C° 0 mm 7 m/S 754 mmHg 46%
    11:00 +15°C° 0.1 mm 7 m/S 754 mmHg 47%
    12:00 +15°C° 0.1 mm 7 m/S 755 mmHg 47%
    13:00 +15°C° 0.1 mm 7 m/S 755 mmHg 48%
    14:00 +15°C° 0.4 mm 7 m/S 755 mmHg 50%
    15:00 +15°C° 0.4 mm 6 m/S 755 mmHg 53%
    16:00 +15°C° 0.4 mm 6 m/S 755 mmHg 55%
    17:00 +14°C° 0.2 mm 6 m/S 756 mmHg 59%
    18:00 +13°C° 0.2 mm 6 m/S 756 mmHg 62%
    19:00 +12°C° 0.2 mm 5 m/S 757 mmHg 66%
    20:00 +12°C° 0 mm 5 m/S 758 mmHg 67%
    21:00 +10°C° 0 mm 5 m/S 758 mmHg 68%
    22:00 +10°C° 0 mm 4 m/S 759 mmHg 70%
    23:00 +10°C° 0 mm 4 m/S 759 mmHg 72%

    27 Oktober, Sonntag

    Zeit Temperatur Niederschläge Wind Luftdruck Luftfeuchtigkeit
    00:00 +8°C° 0 mm 4 m/S 759 mmHg 74%
    01:00 +8°C° 0 mm 4 m/S 759 mmHg 76%
    02:00 +8°C° 0 mm 3 m/S 759 mmHg 77%
    03:00 +8°C° 0 mm 3 m/S 759 mmHg 78%
    04:00 +8°C° 0 mm 3 m/S 759 mmHg 79%
    05:00 +9°C° 0 mm 3 m/S 759 mmHg 77%
    06:00 +9°C° 0 mm 3 m/S 760 mmHg 75%
    07:00 +10°C° 0 mm 3 m/S 760 mmHg 73%
    08:00 +11°C° 0.1 mm 3 m/S 760 mmHg 66%
    09:00 +13°C° 0.1 mm 3 m/S 760 mmHg 59%
    10:00 +14°C° 0.1 mm 3 m/S 760 mmHg 53%
    11:00 +16°C° 0 mm 3 m/S 761 mmHg 53%
    12:00 +16°C° 0 mm 3 m/S 761 mmHg 53%
    13:00 +16°C° 0 mm 3 m/S 761 mmHg 53%
    14:00 +16°C° 0.1 mm 3 m/S 761 mmHg 56%
    15:00 +16°C° 0.1 mm 3 m/S 761 mmHg 59%
    16:00 +16°C° 0.1 mm 3 m/S 761 mmHg 62%
    17:00 +14°C° 0.1 mm 3 m/S 762 mmHg 67%
    18:00 +13°C° 0.1 mm 3 m/S 762 mmHg 73%
    19:00 +12°C° 0.1 mm 4 m/S 763 mmHg 79%
    20:00 +12°C° 0 mm 3 m/S 764 mmHg 78%
    21:00 +12°C° 0 mm 3 m/S 764 mmHg 76%
    22:00 +11°C° 0 mm 3 m/S 765 mmHg 75%
    23:00 +11°C° 0 mm 3 m/S 765 mmHg 76%

    28 Oktober, Montag

    Zeit Temperatur Niederschläge Wind Luftdruck Luftfeuchtigkeit
    00:00 +10°C° 0 mm 2 m/S 765 mmHg 78%
    01:00 +9°C° 0 mm 2 m/S 765 mmHg 79%
    02:00 +9°C° 0 mm 2 m/S 765 mmHg 80%
    03:00 +9°C° 0 mm 2 m/S 766 mmHg 80%
    04:00 +9°C° 0 mm 2 m/S 766 mmHg 80%
    05:00 +10°C° 0 mm 1 m/S 766 mmHg 78%
    06:00 +11°C° 0 mm 1 m/S 766 mmHg 75%
    07:00 +12°C° 0 mm 1 m/S 766 mmHg 73%
    08:00 +13°C° 0 mm 1 m/S 766 mmHg 64%
    09:00 +15°C° 0 mm 1 m/S 766 mmHg 55%
    10:00 +17°C° 0 mm 2 m/S 766 mmHg 47%
    11:00 +18°C° 0 mm 2 m/S 766 mmHg 43%
    12:00 +20°C° 0 mm 2 m/S 765 mmHg 40%
    13:00 +21°C° 0 mm 2 m/S 765 mmHg 37%
    14:00 +21°C° 0 mm 3 m/S 765 mmHg 39%
    15:00 +20°C° 0 mm 3 m/S 764 mmHg 41%
    16:00 +20°C° 0 mm 3 m/S 764 mmHg 43%
    17:00 +18°C° 0 mm 3 m/S 764 mmHg 51%
    18:00 +16°C° 0 mm 3 m/S 764 mmHg 58%
    19:00 +15°C° 0 mm 2 m/S 764 mmHg 66%
    20:00 +14°C° 0 mm 2 m/S 764 mmHg 69%
    21:00 +13°C° 0 mm 1 m/S 765 mmHg 73%
    22:00 +12°C° 0 mm 1 m/S 765 mmHg 77%
    23:00 +12°C° 0 mm 1 m/S 764 mmHg 77%
    Mehr zeigen